User: anonymous   Login
Location: Montr�al
(45.5000°N, 73.5830°W)
Time: 14:58:44
(UTC-05:00)
Language:

Cosmos 1151 Rocket - Orbit

View from above orbital plane
View from above orbital plane
View from above satellite
View from above satellite

Ground track
Ground track

The orbit data is extracted from the following two-line orbital elements,

1 11672U 80005B   17059.83635047  .00000141  00000-0  12743-4 0  9995
2 11672  82.5177 181.6397 0015706 320.9379  39.0703 14.87848559  7284
Epoch (UTC): 28 February 2017 20:04:20
Eccentricity: 0.0015706
inclination: 82.5177°
perigee height: 593 km
apogee height: 615 km
right ascension of ascending node: 181.6397°
argument of perigee: 320.9379°
revolutions per day: 14.87848559
mean anomaly at epoch: 39.0703°
orbit number at epoch: 728

The dashed part of the orbit path shows where the satellite is in the earth's shadow,  

DLR